| time (UTC) | temp C | wind direction | speed KPH | gust KPH | rain 1hr cm | rain 24hr cm | rain mn cm | humidity % | barometer mb |
| 20260503224938 | 16 | 248 | 25.7 | 29.0 | 0.00 | 0.00 | 0.00 | 30 | 991.5 |
| 20260503224418 | 16 | 225 | 24.1 | 30.6 | 0.00 | 0.00 | 0.00 | 32 | 991.6 |
| 20260503223918 | 16 | 225 | 24.1 | 32.2 | 0.00 | 0.00 | 0.00 | 29 | 991.6 |
| 20260503223418 | 16 | 225 | 24.1 | 35.4 | 0.00 | 0.00 | 0.00 | 32 | 991.6 |
| 20260503222917 | 16 | 225 | 25.7 | 35.4 | 0.00 | 0.00 | 0.00 | 31 | 991.6 |
| 20260503222418 | 16 | 225 | 25.7 | 32.2 | 0.00 | 0.00 | 0.00 | 31 | 991.7 |
| 20260503221918 | 16 | 225 | 29.0 | 37.0 | 0.00 | 0.00 | 0.00 | 31 | 991.6 |
| 20260503221417 | 16 | 225 | 29.0 | 33.8 | 0.00 | 0.00 | 0.00 | 29 | 991.6 |
| 20260503220918 | 16 | 225 | 25.7 | 32.2 | 0.00 | 0.00 | 0.00 | 31 | 991.6 |
| 20260503220417 | 16 | 225 | 29.0 | 32.2 | 0.00 | 0.00 | 0.00 | 32 | 991.6 |
| 20260503215918 | 16 | 225 | 38.6 | 45.1 | 0.00 | 0.00 | 0.00 | 31 | 991.6 |
| 20260503215418 | 16 | 225 | 29.0 | 37.0 | 0.00 | 0.00 | 0.00 | 30 | 991.7 |
| 20260503214918 | 16 | 248 | 17.7 | 25.7 | 0.00 | 0.00 | 0.00 | 31 | 991.8 |
| 20260503214417 | 16 | 225 | 35.4 | 40.2 | 0.00 | 0.00 | 0.00 | 31 | 991.6 |
| 20260503213917 | 16 | 225 | 32.2 | 43.5 | 0.00 | 0.00 | 0.00 | 29 | 991.5 |
| 20260503213418 | 16 | 225 | 37.0 | 48.3 | 0.00 | 0.00 | 0.00 | 31 | 991.7 |
| 20260503212917 | 16 | 225 | 37.0 | 48.3 | 0.00 | 0.00 | 0.00 | 30 | 991.6 |
| 20260503212417 | 16 | 225 | 29.0 | 37.0 | 0.00 | 0.00 | 0.00 | 30 | 991.8 |
| 20260503211938 | 16 | 225 | 27.4 | 35.4 | 0.00 | 0.00 | 0.00 | 29 | 991.7 |
| 20260503211417 | 16 | 225 | 38.6 | 51.5 | 0.00 | 0.00 | 0.00 | 31 | 991.6 |
| 20260503210918 | 16 | 225 | 40.2 | 53.1 | 0.00 | 0.00 | 0.00 | 29 | 991.8 |
| 20260503210458 | 16 | 225 | 25.7 | 29.0 | 0.00 | 0.00 | 0.00 | 32 | 991.9 |
| 20260503205918 | 16 | 225 | 25.7 | 30.6 | 0.00 | 0.00 | 0.00 | 29 | 991.9 |
| 20260503205437 | 16 | 225 | 20.9 | 29.0 | 0.00 | 0.00 | 0.00 | 30 | 992.0 |
| 20260503204917 | 16 | 225 | 19.3 | 24.1 | 0.00 | 0.00 | 0.00 | 28 | 991.9 |
| 20260503204439 | 16 | 225 | 38.6 | 45.1 | 0.00 | 0.00 | 0.00 | 31 | 991.9 |
| 20260503203917 | 16 | 248 | 20.9 | 29.0 | 0.00 | 0.00 | 0.00 | 30 | 992.1 |
| 20260503203438 | 16 | 225 | 22.5 | 27.4 | 0.00 | 0.00 | 0.00 | 30 | 992.0 |
| 20260503202917 | 16 | 225 | 22.5 | 29.0 | 0.00 | 0.00 | 0.00 | 30 | 992.0 |
| 20260503202457 | 16 | 225 | 16.1 | 20.9 | 0.00 | 0.00 | 0.00 | 29 | 992.2 |
| 20260503201917 | 16 | 225 | 37.0 | 41.8 | 0.00 | 0.00 | 0.00 | 29 | 991.9 |
| 20260503201417 | 16 | 225 | 33.8 | 45.1 | 0.00 | 0.00 | 0.00 | 30 | 992.0 |
| 20260503200917 | 16 | 225 | 33.8 | 43.5 | 0.00 | 0.00 | 0.00 | 30 | 992.1 |
| 20260503200417 | 16 | 225 | 29.0 | 40.2 | 0.00 | 0.00 | 0.00 | 31 | 992.2 |
| 20260503195917 | 16 | 225 | 40.2 | 49.9 | 0.00 | 0.00 | 0.00 | 31 | 992.2 |
| 20260503195417 | 16 | 225 | 35.4 | 43.5 | 0.00 | 0.00 | 0.00 | 30 | 992.2 |
| 20260503194917 | 16 | 225 | 20.9 | 25.7 | 0.00 | 0.00 | 0.00 | 28 | 992.4 |
| 20260503194419 | 16 | 225 | 33.8 | 46.7 | 0.00 | 0.00 | 0.00 | 32 | 992.5 |
| 20260503193917 | 16 | 225 | 30.6 | 33.8 | 0.00 | 0.00 | 0.00 | 30 | 992.5 |
| 20260503193417 | 16 | 248 | 27.4 | 32.2 | 0.00 | 0.00 | 0.00 | 30 | 992.5 |
| 20260503192919 | 16 | 225 | 22.5 | 27.4 | 0.00 | 0.00 | 0.00 | 31 | 992.7 |
| 20260503192419 | 16 | 225 | 24.1 | 30.6 | 0.00 | 0.00 | 0.00 | 28 | 992.8 |
| 20260503191917 | 16 | 225 | 35.4 | 46.7 | 0.00 | 0.00 | 0.00 | 32 | 992.9 |
| 20260503191417 | 16 | 225 | 30.6 | 38.6 | 0.00 | 0.00 | 0.00 | 32 | 992.8 |
| 20260503190940 | 16 | 225 | 33.8 | 45.1 | 0.00 | 0.00 | 0.00 | 32 | 992.9 |
| 20260503190419 | 16 | 225 | 35.4 | 40.2 | 0.00 | 0.00 | 0.00 | 31 | 992.9 |
| 20260503185918 | 16 | 225 | 32.2 | 40.2 | 0.00 | 0.00 | 0.00 | 31 | 993.0 |
| 20260503185419 | 16 | 225 | 30.6 | 40.2 | 0.00 | 0.00 | 0.00 | 31 | 993.2 |
| 20260503184917 | 16 | 225 | 32.2 | 38.6 | 0.00 | 0.00 | 0.00 | 31 | 993.2 |
| 20260503184420 | 16 | 225 | 25.7 | 33.8 | 0.00 | 0.00 | 0.00 | 30 | 993.3 |
| 20260503183917 | 16 | 225 | 35.4 | 41.8 | 0.00 | 0.00 | 0.00 | 33 | 993.4 |
| 20260503183419 | 16 | 225 | 35.4 | 41.8 | 0.00 | 0.00 | 0.00 | 33 | 993.3 |
| 20260503182917 | 16 | 225 | 32.2 | 38.6 | 0.00 | 0.00 | 0.00 | 31 | 993.4 |
| 20260503182418 | 15 | 225 | 40.2 | 48.3 | 0.00 | 0.00 | 0.00 | 31 | 993.4 |
| 20260503181919 | 16 | 225 | 19.3 | 24.1 | 0.00 | 0.00 | 0.00 | 30 | 993.7 |
| 20260503181417 | 15 | 225 | 16.1 | 19.3 | 0.00 | 0.00 | 0.00 | 28 | 993.7 |
| 20260503180938 | 15 | 225 | 22.5 | 25.7 | 0.00 | 0.00 | 0.00 | 28 | 993.8 |
| 20260503180417 | 15 | 248 | 24.1 | 30.6 | 0.00 | 0.00 | 0.00 | 31 | 993.9 |
| 20260503175940 | 15 | 225 | 29.0 | 37.0 | 0.00 | 0.00 | 0.00 | 32 | 994.1 |
| 20260503175439 | 15 | 248 | 27.4 | 32.2 | 0.00 | 0.00 | 0.00 | 31 | 994.0 |
| 20260503174918 | 15 | 225 | 29.0 | 33.8 | 0.00 | 0.00 | 0.00 | 33 | 994.1 |
| 20260503174417 | 15 | 225 | 30.6 | 35.4 | 0.00 | 0.00 | 0.00 | 34 | 994.1 |
| 20260503173917 | 15 | 248 | 17.7 | 22.5 | 0.00 | 0.00 | 0.00 | 31 | 994.2 |
| 20260503173417 | 15 | 225 | 27.4 | 48.3 | 0.00 | 0.00 | 0.00 | 32 | 994.2 |
| 20260503172917 | 15 | 225 | 25.7 | 29.0 | 0.00 | 0.00 | 0.00 | 36 | 994.3 |
| 20260503172417 | 15 | 248 | 12.9 | 14.5 | 0.00 | 0.00 | 0.00 | 34 | 994.4 |
| 20260503171917 | 15 | 248 | 17.7 | 27.4 | 0.00 | 0.00 | 0.00 | 35 | 994.5 |
| 20260503171417 | 15 | 248 | 14.5 | 19.3 | 0.00 | 0.00 | 0.00 | 36 | 994.6 |
| 20260503170917 | 14 | 225 | 16.1 | 22.5 | 0.00 | 0.00 | 0.00 | 34 | 994.6 |
| 20260503170417 | 15 | 225 | 16.1 | 19.3 | 0.00 | 0.00 | 0.00 | 34 | 994.7 |
| 20260503150937 | 12 | 248 | 27.4 | 30.6 | 0.00 | 0.00 | 0.00 | 42 | 995.7 |
| 20260503150417 | 11 | 248 | 16.1 | 22.5 | 0.00 | 0.00 | 0.00 | 40 | 995.8 |
| 20260503130920 | 8 | 225 | 22.5 | 29.0 | 0.00 | 0.00 | 0.00 | 45 | 996.2 |
| 20260503130417 | 8 | 225 | 22.5 | 30.6 | 0.00 | 0.00 | 0.00 | 45 | 996.2 |
| 20260503110419 | 3 | 203 | 9.7 | 12.9 | 0.00 | 0.00 | 0.00 | 56 | 996.3 |
| 20260503090418 | 4 | 225 | 12.9 | 14.5 | 0.00 | 0.10 | 0.00 | 56 | 996.3 |
| 20260503081418 | 4 | 225 | 12.9 | 14.5 | 0.00 | 0.53 | 0.00 | 54 | 996.4 |
| 20260503080938 | 4 | 225 | 12.9 | 14.5 | 0.00 | 0.56 | 0.00 | 55 | 996.5 |
| 20260503080418 | 4 | 225 | 11.3 | 14.5 | 0.00 | 0.58 | 0.00 | 55 | 996.4 |
| 20260503072918 | 5 | 225 | 12.9 | 16.1 | 0.00 | 0.79 | 0.00 | 54 | 996.4 |
| 20260503072418 | 5 | 225 | 12.9 | 16.1 | 0.00 | 0.81 | 0.00 | 54 | 996.4 |
| 20260503071918 | 5 | 225 | 12.9 | 16.1 | 0.00 | 0.84 | 0.00 | 54 | 996.4 |
| 20260503071418 | 5 | 225 | 14.5 | 17.7 | 0.00 | 0.84 | 0.00 | 54 | 996.5 |
| 20260503070918 | 5 | 225 | 12.9 | 16.1 | 0.00 | 0.84 | 0.00 | 54 | 996.5 |
| 20260503070438 | 5 | 225 | 14.5 | 19.3 | 0.00 | 0.84 | 0.00 | 54 | 996.5 |
| 20260503054938 | 5 | 225 | 11.3 | 14.5 | 0.00 | 0.84 | 0.00 | 55 | 996.8 |
| 20260503054459 | 5 | 225 | 11.3 | 12.9 | 0.00 | 0.84 | 0.00 | 55 | 996.7 |
| 20260503053918 | 5 | 225 | 11.3 | 14.5 | 0.00 | 0.84 | 0.00 | 55 | 996.8 |
| 20260503053438 | 5 | 225 | 12.9 | 14.5 | 0.00 | 0.84 | 0.00 | 55 | 996.8 |
| 20260503052917 | 5 | 225 | 11.3 | 12.9 | 0.00 | 0.84 | 0.00 | 55 | 996.7 |
| 20260503052419 | 5 | 225 | 11.3 | 14.5 | 0.00 | 0.84 | 0.00 | 55 | 996.8 |
| 20260503051918 | 5 | 225 | 11.3 | 12.9 | 0.00 | 0.84 | 0.00 | 55 | 996.8 |
| 20260503051417 | 5 | 225 | 9.7 | 14.5 | 0.00 | 0.84 | 0.00 | 55 | 996.9 |
| 20260503050918 | 5 | 225 | 9.7 | 12.9 | 0.00 | 0.84 | 0.00 | 54 | 996.8 |
| 20260503050441 | 5 | 203 | 9.7 | 12.9 | 0.00 | 0.84 | 0.00 | 54 | 996.8 |
| 20260503045918 | 6 | 225 | 9.7 | 11.3 | 0.00 | 0.84 | 0.00 | 54 | 996.8 |
| 20260503045417 | 6 | 203 | 9.7 | 11.3 | 0.00 | 0.84 | 0.00 | 54 | 996.8 |
| 20260503044919 | 6 | 225 | 11.3 | 12.9 | 0.00 | 0.84 | 0.00 | 54 | 996.8 |
| 20260503044420 | 6 | 225 | 9.7 | 11.3 | 0.00 | 0.84 | 0.00 | 53 | 996.9 |
| 20260503043940 | 6 | 203 | 9.7 | 12.9 | 0.00 | 0.84 | 0.00 | 53 | 996.9 |
| 20260503043417 | 6 | 225 | 9.7 | 11.3 | 0.00 | 0.84 | 0.00 | 53 | 996.8 |
| 20260503042917 | 6 | 203 | 9.7 | 11.3 | 0.00 | 0.84 | 0.00 | 53 | 996.8 |
| 20260503042420 | 6 | 225 | 9.7 | 11.3 | 0.00 | 0.84 | 0.00 | 53 | 996.8 |
| 20260503041918 | 6 | 203 | 8.0 | 11.3 | 0.00 | 0.84 | 0.00 | 52 | 996.9 |
| 20260503041440 | 6 | 225 | 9.7 | 11.3 | 0.00 | 0.84 | 0.00 | 52 | 996.9 |
| 20260503040920 | 6 | 225 | 9.7 | 12.9 | 0.00 | 0.84 | 0.00 | 52 | 996.9 |
| 20260503040420 | 6 | 203 | 8.0 | 11.3 | 0.00 | 0.84 | 0.00 | 51 | 996.9 |
| 20260503035920 | 6 | 225 | 9.7 | 11.3 | 0.00 | 0.84 | 0.84 | 51 | 996.9 |
| 20260503035420 | 6 | 225 | 9.7 | 11.3 | 0.00 | 0.84 | 0.84 | 50 | 997.0 |
| 20260503034918 | 6 | 225 | 9.7 | 11.3 | 0.00 | 0.84 | 0.84 | 50 | 996.9 |
| 20260503034417 | 6 | 225 | 8.0 | 11.3 | 0.00 | 0.84 | 0.84 | 50 | 997.0 |
| 20260503033920 | 6 | 225 | 11.3 | 12.9 | 0.00 | 0.84 | 0.84 | 50 | 996.9 |
| 20260503033417 | 6 | 225 | 9.7 | 11.3 | 0.00 | 0.84 | 0.84 | 50 | 996.9 |
| 20260503032920 | 7 | 225 | 11.3 | 12.9 | 0.00 | 0.84 | 0.84 | 50 | 996.9 |
| 20260503032419 | 7 | 225 | 12.9 | 14.5 | 0.00 | 0.84 | 0.84 | 50 | 997.0 |
| 20260503031918 | 7 | 225 | 12.9 | 16.1 | 0.00 | 0.84 | 0.84 | 50 | 996.9 |
| 20260503031439 | 7 | 225 | 12.9 | 16.1 | 0.00 | 0.84 | 0.84 | 50 | 997.0 |
| 20260503030918 | 7 | 203 | 12.9 | 16.1 | 0.00 | 0.84 | 0.84 | 50 | 997.0 |
| 20260503030422 | 7 | 225 | 11.3 | 12.9 | 0.00 | 0.84 | 0.84 | 50 | 997.1 |
| 20260503025920 | 7 | 225 | 12.9 | 14.5 | 0.00 | 0.84 | 0.84 | 50 | 997.1 |
| 20260503025418 | 7 | 203 | 8.0 | 11.3 | 0.00 | 0.84 | 0.84 | 50 | 997.1 |
| 20260503024918 | 7 | 203 | 8.0 | 11.3 | 0.00 | 0.84 | 0.84 | 50 | 997.2 |
| 20260503024418 | 7 | 203 | 11.3 | 16.1 | 0.00 | 0.84 | 0.84 | 50 | 997.2 |
| 20260503023917 | 7 | 225 | 12.9 | 14.5 | 0.00 | 0.84 | 0.84 | 50 | 997.2 |
| 20260503023417 | 7 | 225 | 9.7 | 11.3 | 0.00 | 0.84 | 0.84 | 49 | 997.3 |
| 20260503022917 | 7 | 203 | 6.4 | 12.9 | 0.00 | 0.84 | 0.84 | 50 | 997.2 |
| 20260503022419 | 7 | 225 | 9.7 | 12.9 | 0.00 | 0.84 | 0.84 | 49 | 997.2 |
| 20260503021919 | 7 | 203 | 4.8 | 8.0 | 0.00 | 0.84 | 0.84 | 49 | 997.2 |
| 20260503021417 | 7 | 203 | 8.0 | 12.9 | 0.00 | 0.84 | 0.84 | 49 | 997.2 |
| 20260503020918 | 7 | 203 | 8.0 | 11.3 | 0.00 | 0.84 | 0.84 | 48 | 997.3 |
| 20260503020418 | 7 | 203 | 6.4 | 11.3 | 0.00 | 0.86 | 0.84 | 48 | 997.1 |
| 20260503015919 | 7 | 203 | 6.4 | 11.3 | 0.00 | 0.86 | 0.84 | 49 | 997.3 |
| 20260503015419 | 7 | 203 | 3.2 | 6.4 | 0.00 | 0.86 | 0.84 | 48 | 997.2 |
| 20260503014918 | 7 | 203 | 4.8 | 8.0 | 0.00 | 0.86 | 0.84 | 48 | 997.2 |
| 20260503014438 | 7 | 180 | 3.2 | 4.8 | 0.00 | 0.86 | 0.84 | 48 | 997.2 |
| 20260503013917 | 7 | 203 | 3.2 | 4.8 | 0.00 | 0.86 | 0.84 | 48 | 997.2 |
| 20260503013417 | 7 | 180 | 3.2 | 4.8 | 0.00 | 0.86 | 0.84 | 47 | 997.2 |
| 20260503012917 | 7 | 180 | 6.4 | 12.9 | 0.00 | 0.86 | 0.84 | 47 | 997.1 |
| 20260503012418 | 7 | 180 | 8.0 | 11.3 | 0.00 | 0.86 | 0.84 | 46 | 997.2 |
| 20260503011919 | 7 | 203 | 3.2 | 8.0 | 0.00 | 0.86 | 0.84 | 46 | 997.1 |
| 20260503011417 | 7 | 180 | 3.2 | 8.0 | 0.00 | 0.86 | 0.84 | 45 | 997.2 |
| 20260503010917 | 7 | 180 | 1.6 | 4.8 | 0.00 | 0.86 | 0.84 | 45 | 997.1 |
| 20260503010418 | 7 | 180 | 3.2 | 8.0 | 0.00 | 0.86 | 0.84 | 44 | 997.1 |
| 20260503005919 | 7 | 180 | 4.8 | 6.4 | 0.00 | 0.86 | 0.84 | 44 | 997.1 |
| 20260503005417 | 7 | 180 | 9.7 | 11.3 | 0.00 | 0.86 | 0.84 | 44 | 997.1 |
| 20260503004938 | 7 | 180 | 6.4 | 8.0 | 0.00 | 0.86 | 0.84 | 44 | 997.1 |
| 20260503004418 | 7 | 180 | 4.8 | 6.4 | 0.00 | 0.86 | 0.84 | 44 | 997.1 |
| 20260503003917 | 7 | 180 | 6.4 | 6.4 | 0.00 | 0.86 | 0.84 | 44 | 997.0 |
| 20260503003418 | 7 | 203 | 3.2 | 4.8 | 0.00 | 0.86 | 0.84 | 43 | 997.0 |
| 20260503002918 | 7 | 203 | 3.2 | 8.0 | 0.00 | 0.86 | 0.84 | 43 | 997.0 |
| 20260503002418 | 7 | 203 | 4.8 | 8.0 | 0.00 | 0.86 | 0.84 | 43 | 997.0 |
| 20260503001918 | 7 | 225 | 1.6 | 3.2 | 0.00 | 0.86 | 0.84 | 42 | 997.0 |
| 20260503001418 | 7 | 225 | 3.2 | 4.8 | 0.00 | 0.86 | 0.84 | 44 | 997.0 |
| 20260503000918 | 7 | 225 | 3.2 | 4.8 | 0.00 | 0.86 | 0.84 | 44 | 997.1 |
| 20260503000417 | 7 | 225 | 3.2 | 6.4 | 0.00 | 0.86 | 0.84 | 43 | 997.0 |
| 20260502235917 | 7 | 203 | 6.4 | 8.0 | 0.00 | 0.86 | 0.84 | 43 | 997.1 |
| 20260502235417 | 7 | 225 | 8.0 | 9.7 | 0.00 | 0.86 | 0.84 | 44 | 997.0 |
| 20260502234958 | 7 | 225 | 6.4 | 8.0 | 0.00 | 0.86 | 0.84 | 43 | 997.0 |
| 20260502234417 | 7 | 225 | 8.0 | 9.7 | 0.00 | 0.86 | 0.84 | 44 | 997.0 |
| 20260502233917 | 7 | 225 | 9.7 | 11.3 | 0.00 | 0.86 | 0.84 | 43 | 996.9 |
| 20260502233418 | 7 | 225 | 6.4 | 8.0 | 0.00 | 0.86 | 0.84 | 43 | 997.0 |
| 20260502232938 | 7 | 225 | 8.0 | 9.7 | 0.00 | 0.86 | 0.84 | 43 | 997.0 |
| 20260502232417 | 8 | 225 | 4.8 | 6.4 | 0.00 | 0.86 | 0.84 | 43 | 997.0 |
| 20260502231918 | 8 | 225 | 6.4 | 8.0 | 0.00 | 0.86 | 0.84 | 43 | 997.0 |
| 20260502231418 | 8 | 225 | 6.4 | 8.0 | 0.00 | 0.86 | 0.84 | 44 | 997.0 |
| 20260502230917 | 8 | 225 | 9.7 | 11.3 | 0.00 | 0.86 | 0.84 | 41 | 997.0 |
| 20260502230437 | 8 | 248 | 3.2 | 4.8 | 0.00 | 0.86 | 0.84 | 39 | 997.1 |
| 20260502225935 | 8 | 225 | 8.0 | 9.7 | 0.00 | 0.86 | 0.84 | 41 | 997.0 |
| 20260502225418 | 8 | 270 | 3.2 | 4.8 | 0.00 | 0.86 | 0.84 | 38 | 997.0 |